Flag for U.S.A. Weather past 2 weeks in Fall River, Massachusetts, U.S.A.

42 °F


Feels Like: 39 °F
Forecast: 33 / 45 °F
Wind: 5 mph from North

Location: New Bedford Regional Airport

Current Time: Nov 29, 2015 at 11:59:04 AM

Latest Report: Nov 29, 2015 at 10:53 AM

Visibility: 10 mi

Pressure: 30.21 "Hg

Humidity: 47%

Dew point: 23 °F

Location of Fall RiverLocation

Historic Weather in Fall River — Graph


Fall River temperature yesterday

Maximum temperature yesterday: 56 °F (at 12:53 AM)
Minimum temperature yesterday: 43 °F (at 11:53 PM)
Average temperature yesterday: 50 °F

Past Weeks' High & Low Weather Summary

High63 °F (Nov 20, 1:53 PM)100% (Nov 18, 8:53 PM)30.87 "Hg (Nov 18, 8:53 PM)
Low22 °F (Nov 25, 4:53 AM)31% (Nov 16, 2:53 PM)29.75 "Hg (Nov 23, 1:53 AM)
Average44 °F74%30.27 "Hg
* Reported Nov 14 9:53 AM — Nov 29 9:53 AM, Fall River, Weather by CustomWeather, © 2015

Note: Actual official high and low records may vary slightly from our data, if they occured in-between our weather recording intervals... More about our weather records


Fall River weather history for previous 24 hours

Time TempWeatherWind HumidityBarometerVisibility
9:53 AM
Sun, Nov 29
36 °FSunny.3 mph73%30.23 "Hg10 mi
8:53 AM35 °FSunny.3 mph82%30.24 "Hg10 mi
7:53 AM34 °FSunny.3 mph82%30.23 "Hg10 mi
6:53 AM35 °FSunny.5 mph85%30.21 "Hg10 mi
5:53 AM37 °FPassing clouds.5 mph86%30.19 "Hg10 mi
4:53 AM40 °FPassing clouds.3 mph93%30.19 "Hg10 mi
3:53 AM41 °FPassing clouds.3 mph93%30.17 "Hg10 mi
2:53 AM42 °FMostly cloudy.3 mph92%30.17 "Hg10 mi
1:53 AM42 °FOvercast.6 mph92%30.17 "Hg10 mi
12:53 AM43 °FMostly cloudy.3 mph93%30.16 "Hg10 mi
11:53 PM
Sat, Nov 28
43 °FOvercast.3 mph93%30.17 "Hg10 mi
10:53 PM44 °FLow clouds.6 mph93%30.17 "Hg10 mi
9:53 PM44 °FLow clouds.3 mph93%30.17 "Hg10 mi
8:53 PM44 °FLow clouds.8 mph96%30.16 "Hg10 mi
7:53 PM44 °FLow clouds.6 mph96%30.16 "Hg10 mi
6:53 PM45 °FLow clouds.5 mph97%30.14 "Hg10 mi
5:53 PM45 °FLight rain. Low clouds.8 mph97%30.15 "Hg10 mi
4:53 PM45 °FLow clouds.6 mph97%30.15 "Hg10 mi
3:53 PM46 °FLow clouds.7 mph96%30.12 "Hg10 mi
2:53 PM48 °FLight rain. Low clouds.5 mph96%30.12 "Hg7 mi
1:53 PM50 °FLight rain. More clouds than sun.8 mph93%30.11 "Hg8 mi
12:53 PM53 °FLight rain. Low clouds.6 mph89%30.10 "Hg10 mi
11:53 AM54 °FLight rain. Low clouds.3 mph90%30.10 "Hg10 mi
Weather by CustomWeather, © 2015

See weather overviewHow to use our weather pages